Regional Weather Roundup
Issued by NWS

Home | Current Version | Previous Version | Text Only | Print | Product List | Glossary On
Versions: 1 2 3 4 5 6 7 8 9 10 11 12 13 14 15 16 17 18 19 20 21 22 23 24 25 26 27 28 29 30 31 32 33 34 35 36 37 38 39 40 41 42 43 44 45 46 47 48 49 50
000
ASUS45 KABQ 020910
RWRNM
NEW MEXICO REGIONAL WEATHER ROUNDUP
NATIONAL WEATHER SERVICE ALBUQUERQUE NM
300 AM MDT SUN AUG 02 2015

NOTE: "FAIR" MEANS FEW OR NO CLOUDS BELOW 12,000 FEET AGL WITH NO
       SIGNIFICANT WEATHER OR OBSTRUCTIONS TO VISION.

      THIS PRODUCT IS RELEASED AS TWO VERSIONS.  ONE VERSION NEAR
      THE TOP OF THE HOUR CONTAINING PRELIMINARY DATA FROM ALBUQUERQUE
      AND OTHER STATIONS.  A FINAL VERSION WITH ADDITIONAL DATA IS
      ISSUED ABOUT 10 MINUTES AFTER THE HOUR.

NMZ501-503-504-510>518-021000-
NORTHWEST PLATEAU/NORTHCENTRAL MOUNTAINS

CITY           SKY/WX    TMP DP  RH WIND       PRES   REMARKS
FARMINGTON     PTCLDY    65  56  72 E6        30.16R
LOS ALAMOS     MOCLDY    60  58  94 W3        30.29F
SANTA FE       MOCLDY    64  58  80 CALM      30.23F
TAOS           MOCLDY    55  45  67 E3        30.29F
ANGEL FIRE     FOG       48  47  97 CALM      30.38F VSB 1/4

$$
NMZ402-403-502-505>509-021000-
WESTCENTRAL MOUNTAINS/SOUTHWEST MOUNTAINS

CITY           SKY/WX    TMP DP  RH WIND       PRES   REMARKS
GALLUP         CLOUDY    60  56  86 CALM      30.23S
GRANTS         CLOUDY    58  57  95 E3        30.26S
SILVER CITY      N/A     64  55  72 NW5       30.18R

$$
NMZ407-409-411-412-021000-
SOUTHERN DESERTS

CITY           SKY/WX    TMP DP  RH WIND       PRES   REMARKS
LORDSBURG      FAIR      70  63  78 CALM      30.08S
DEMING         CLEAR     73  57  57 NE7       30.08S
LAS CRUCES     CLEAR     71  62  72 CALM      30.10S
HOLLOMAN AFB   MOCLDY    76  55  47 S7        30.08R
ALAMOGORDO     LGT RAIN  73  57  56 N3        30.12R
T OR C         MOCLDY    72  59  63 N10G21    30.13F

$$
NMZ519>523-021000-
CENTRAL VALLEYS/CENTRAL HIGHLANDS

CITY           SKY/WX    TMP DP  RH WIND       PRES   REMARKS
ALBUQUERQUE    MOCLDY    67  61  81 SE5       30.17F
DOUBLE EAGLE   CLOUDY    63  61  94 CALM      30.21S
MORIARTY ARPT    N/A     60  56  87 CALM      30.24F
CLINES CORNERS CLOUDY    61  57  87 NW7       30.26F
BELEN          FAIR      64  61  90 S3        30.18S
SOCORRO        CLOUDY    68  60  75 CALM      30.17F

$$
NMZ524>526-539-540-021000-
SOUTHCENTRAL MOUNTAINS

CITY           SKY/WX    TMP DP  RH WIND       PRES   REMARKS
RUIDOSO          N/A    N/A N/A N/A MISG        N/A

$$
NMZ527>531-021000-
NORTHEAST HIGHLANDS/NORTHEAST PLAINS

CITY           SKY/WX    TMP DP  RH WIND       PRES   REMARKS
LAS VEGAS      CLOUDY    59  55  87 N6        30.25F
RATON          MOCLDY    60  56  86 NE5       30.19F
CLAYTON        MOCLDY    66  62  87 NW6       30.08F

$$
NMZ532>537-021000-
EASTCENTRAL PLAINS

CITY           SKY/WX    TMP DP  RH WIND       PRES   REMARKS
TUCUMCARI      MOCLDY    69  64  84 SW6       30.06F
CANNON AFB     PTCLDY    67  63  85 VRB1      30.10F
CLOVIS AIRPORT PTCLDY    66  63  88 SW5       30.11S

$$
NMZ028-029-538-021000-
SOUTHEAST PLAINS

CITY           SKY/WX    TMP DP  RH WIND       PRES   REMARKS
ROSWELL        MOCLDY    76  61  59 S7        30.05F
ARTESIA        MOCLDY    73  64  73 CALM      30.05F
CARLSBAD       PTCLDY    73  67  81 W5        30.02F
HOBBS            N/A    N/A N/A N/A MISG        N/A


$$


USA.gov is the U.S. government's official web portal to all federal, state and local government web resources and services.